Find Starlink 31956

NORAD ID: 59930 Int'l Des: 2024-106 Owner: SPXS Country: US Constellation: starlink operational
LEOCIRCULAR

リアルタイム位置

3D地球を読み込み中...

Starlink 31956について

説明を読み込み中...

次回通過

Passes for default location (London). Set your location on the main map for personalized predictions.

高度履歴

Loading altitude history...

軌道要素

1 59930U 24106J 26124.40174271 -.00000274 00000-0 -42751-6 0 9990
2 59930 43.0022 17.8589 0001551 277.7455 82.3221 15.27578029109044
Epoch: May 4, 2026 • Age: 12 hours

現在のステータス

高度 482.6 km
速度 7.63 km/s
衛星直下点 6.05°N, 5.25°E
打ち上げ日 Jun 1, 2024
運用期間 1.9 years
タイプ internet

技術仕様

分類 Payload
質量 730.00 kg
乾燥質量 700.00 kg
総質量 730.00 kg
長さ 0.30 m
直径 4.10 m
スパン 29.00 m
形状 Box + pan
製造者 SPXS
バスタイプ Starlink V2M
フェーズステータス In Orbit
所有者/国 SPXS/US

Most Searched